Regional Weather Roundup
Issued by NWS

Home | Current Version | Previous Version | Graphics & Text | Print | Product List | Glossary On
Versions: 1 2 3 4 5 6 7 8 9 10 11 12 13 14 15 16 17 18 19 20 21 22 23 24 25 26 27 28 29 30 31 32 33 34 35 36 37 38 39 40 41 42 43 44 45 46 47 48 49 50
837
ASUS45 KPSR 081510
RWRAZ

ARIZONA HOURLY REGIONAL WEATHER ROUNDUP
NATIONAL WEATHER SERVICE PHOENIX AZ
800 AM MST THU DEC 08 2016

NOTE: FAIR INDICATES FEW OR NO CLOUDS BELOW 12,000 FEET WITH NO
SIGNIFICANT WEATHER AND/OR OBSTRUCTIONS TO VISIBILITY.

AZZ001>003-036-081600-
NORTHWEST ARIZONA

CITY           SKY/WX    TMP DP  RH WIND       PRES   REMARKS
BULLHEAD CITY  CLEAR     48  14  25 N18       30.25R
KINGMAN        CLEAR     28   9  44 SE5       30.22R WCI  23
$$

AZZ004>008-015-016-018-081600-
NORTH CENTRAL ARIZONA

CITY           SKY/WX    TMP DP  RH WIND       PRES   REMARKS
GRAND CANYON   CLEAR     21  13  71 CALM      30.22F
WILLIAMS       CLEAR     27  18  69 SE9       30.23R WCI  17
PRESCOTT       CLEAR     27  26  96 CALM      30.23R
FLAGSTAFF      CLEAR     18  14  84 CALM      30.24R
PAYSON         CLEAR     37  27  65 E5        30.25S WCI  34
PAGE           MOCLDY    30   6  36 CALM      30.30S
$$

AZZ009>014-017-081600-
NORTHEAST ARIZONA

CITY           SKY/WX    TMP DP  RH WIND       PRES   REMARKS
WINSLOW        CLEAR     21  13  71 CALM      30.29R
SAINT JOHNS    CLEAR     23  20  88 SE3       30.26R
WINDOW ROCK    CLEAR     14   9  80 CALM      30.27R
SHOW LOW       CLEAR     19  16  86 SE3       30.26S
$$

AZZ023-081600-
GREATER PHOENIX AREA

CITY           SKY/WX    TMP DP  RH WIND       PRES   REMARKS
PHOENIX        PTCLDY    47  39  74 SW5       30.18R
BUCKEYE        CLEAR     39  37  93 N5        30.22R
GLENDALE       CLEAR     43  37  81 CALM      30.21R
LUKE AFB       CLEAR     43  36  76 CALM      30.19R
DEER VALLEY    CLEAR     44  39  82 NE5       30.18R
SCOTTSDALE     CLEAR     46  39  76 CALM      30.19R
MESA-GATEWAY   PTCLDY    41  36  81 E5        30.20R
CHANDLER       CLEAR     41  39  93 CALM      30.19R
$$

AZZ027-028-081600-
SOUTHWEST MARICOPA COUNTY AND PINAL COUNTY

CITY           SKY/WX    TMP DP  RH WIND       PRES   REMARKS
CASA GRANDE    NOT AVBL
GILA BEND      FAIR     N/A N/A N/A SE7         N/A
$$

AZZ503-504-507>509-081600-
SOUTHEAST ARIZONA

CITY           SKY/WX    TMP DP  RH WIND       PRES   REMARKS
TUCSON         CLEAR     43  36  76 SE8       30.22R
DAVIS-MONTHAN  CLEAR     43  36  78 SE5       30.21R
RYAN FIELD     CLEAR     37  36  93 CALM      30.22
NOGALES        CLEAR     37  34  89 S3        30.20R
SIERRA VISTA   CLEAR     43  36  75 CALM      30.23R
DOUGLAS        CLEAR     32  29  88 SE6       30.22R WCI  26
SAFFORD        PTCLDY    37  31  78 CALM      30.22R
$$

AZZ020-021-025-026-031-081600-
SOUTHWEST ARIZONA

CITY           SKY/WX    TMP DP  RH WIND       PRES   REMARKS
YUMA           CLEAR     48  13  24 NE6       30.21R
$$

CAZ031-033-041-043-047-048-061-081600-
SOUTHERN CALIFORNIA

CITY           SKY/WX    TMP DP  RH WIND       PRES   REMARKS
DOWNTOWN L.A.  CLOUDY    53  43  68 CALM      30.21R
L.A. AIRPORT   MOCLDY    54  44  69 E5        30.21R
SAN DIEGO      PTCLDY    51  44  77 CALM      30.23R
BURBANK        CLOUDY    50  39  66 CALM      30.20R
ONTARIO        PTCLDY    47  36  65 CALM      30.21R
RIVERSIDE      PTCLDY    45  37  73 NE5       30.22R
PALM SPRINGS   PTCLDY    49  30  48 CALM      30.23R
EL CENTRO NAS  PTCLDY    40  24  53 W6        30.23R
IMPERIAL       CLEAR     41  28  60 W3        30.21R
BLYTHE         CLEAR     43   9  24 W5        30.24R
NEEDLES        CLEAR     43  12  28 NW5       30.25R
$$

NVZ020-UTZ003-081600-
SOUTHERN NEVADA-UTAH

CITY           SKY/WX    TMP DP  RH WIND       PRES   REMARKS
LAS VEGAS      PTCLDY    37   8  30 SW3       30.26R
SALT LAKE CITY MOCLDY    23  10  57 E3        30.26F
$$

NMZ009-TXZ055-081600-
NEW MEXICO-WEST TEXAS

CITY           SKY/WX    TMP DP  RH WIND       PRES   REMARKS
ALBUQUERQUE    CLOUDY    24  13  62 NE3       30.38R
EL PASO        CLOUDY    37  25  61 E8        30.37R WCI  31
$$


........................KEY........................
SKY/WX - SKY CONDITION/WEATHER
TMP    - TEMPERATURE IN FAHRENHEIT
DP     - DEW POINT IN FAHRENHEIT
RH     - RELATIVE HUMIDITY IN PERCENT
WIND   - DIRECTION AND SPEED IN MILES PER HOUR (MPH)
VRB    - VARIABLE WIND DIRECTION
PRES   - MEAN SEA LEVEL PRESSURE IN INCHES OF MERCURY
         F - FALLING PRESSURE   R - RISING PRESSURE
         S - STEADY PRESSURE
VSB    - VISIBILITY IN MILES
HX     - HEAT INDEX IN FAHRENHEIT
WCI    - WIND CHILL INDEX IN FAHRENHEIT
TC     - TEMPERATURE IN CELSIUS WHICH IS ALSO KNOWN AS
         TEMPERATURE IN CENTIGRADE
AFB    - AIR FORCE BASE
         LUKE AFB IS LUKE AIR FORCE BASE
         DAVIS-MONTHAN IS DAVIS-MONTHAN AIR FORCE BASE
NAS    - NAVAL AIR STATION
         EL CENTRO NAS IS EL CENTRO NAVAL AIR STATION
N/A    - NOT AVAILABLE





USA.gov is the U.S. government's official web portal to all federal, state and local government web resources and services.